This is the latest recevied weather packets stored in our database for station/object KD5HIA. If no packets are shown the sender has not sent any weather packets the latest 10 day(s).
| Time | Temp. | Humidity | Pressure | Rain* | Wind** | Luminosity | Snow |
|---|---|---|---|---|---|---|---|
| 1778053816 | 17.78° C | 71% | 1009.9 hPa | 0 mm | - | 0 W/m² | - |
| 1778053217 | 17.78° C | 71% | 1009.9 hPa | 0 mm | - | 0 W/m² | - |
| 1778052616 | 18.33° C | 71% | 1009.8 hPa | 0 mm | - | 0 W/m² | - |
| 1778052016 | 18.33° C | 71% | 1009.6 hPa | 0 mm | - | 0 W/m² | - |
| 1778051417 | 18.33° C | 70% | 1009.9 hPa | 0 mm | - | 0 W/m² | - |
| 1778050816 | 18.89° C | 70% | 1009.8 hPa | 0 mm | - | 0 W/m² | - |
| 1778050216 | 18.89° C | 69% | 1009.9 hPa | 0 mm | - | 0 W/m² | - |
| 1778049620 | 19.44° C | 68% | 1009.8 hPa | 0 mm | - | 0 W/m² | - |
| 1778049021 | 19.44° C | 67% | 1009.6 hPa | 0 mm | - | 0 W/m² | - |
| 1778048420 | 20° C | 65% | 1009.2 hPa | 0 mm | - | 0 W/m² | - |
| 1778047816 | 20° C | 64% | 1008.9 hPa | 0 mm | - | 0 W/m² | - |
| 1778047216 | 20.56° C | 63% | 1009 hPa | 0 mm | - | 0 W/m² | - |
| 1778046616 | 20.56° C | 62% | 1009 hPa | 0 mm | - | 0 W/m² | - |
| 1778046017 | 21.11° C | 60% | 1009 hPa | 0 mm | - | 0 W/m² | - |
| 1778045417 | 21.67° C | 58% | 1009 hPa | 0 mm | - | 0 W/m² | - |
| 1778044816 | 22.22° C | 54% | 1008.8 hPa | 0 mm | - | 0 W/m² | - |
| 1778044216 | 22.22° C | 47% | 1008.7 hPa | 0 mm | - | 0 W/m² | - |
| 1778043617 | 22.78° C | 45% | 1008.4 hPa | 0 mm | - | 0 W/m² | - |
| 1778043016 | 22.78° C | 45% | 1008.5 hPa | 0 mm | - | 0 W/m² | - |
| 1778042416 | 22.22° C | 46% | 1008.3 hPa | 0 mm | - | 0 W/m² | - |
| 1778041816 | 22.78° C | 45% | 1008.2 hPa | 0 mm | - | 0 W/m² | - |
| 1778041216 | 22.78° C | 48% | 1008.2 hPa | 0 mm | - | 0 W/m² | - |
| 1778040617 | 23.33° C | 41% | 1008.1 hPa | 0 mm | - | 0 W/m² | - |
| 1778040017 | 22.78° C | 47% | 1008.2 hPa | 0 mm | - | 0 W/m² | - |
| 1778039416 | 22.78° C | 45% | 1007.9 hPa | 0 mm | - | 0 W/m² | - |
* Rain latest hour (hover to see other rain measurements)
** Current wind speed in m/s (hover to see current wind gust speed)